Regional Weather Roundup
Issued by NWS

Home | Current Version | Previous Version | Text Only | Print | Product List | Glossary On
Versions: 1 2 3 4 5 6 7 8 9 10 11 12 13 14 15 16 17 18 19 20 21 22 23 24 25 26 27 28 29 30 31 32 33 34 35 36 37 38 39 40 41 42 43 44 45 46 47 48 49 50
000
ASHW40 PHFO 302110
RWRHI

WEATHER ROUNDUP FOR HAWAII
NATIONAL WEATHER SERVICE HONOLULU HI
1100 AM HST TUE JUN 30 2015

THIS IS AN AUTOMATED REPORT THAT HAS NOT BEEN QUALITY CONTROLLED.

NOTE..."FAIR" INDICATES FEW OR NO CLOUDS BELOW 12,000 FEET WITH NO
SIGNIFICANT WEATHER AND/OR OBSTRUCTIONS TO VISIBILITY.

* - THESE SITES REPORT LIMITED FIELDS

HIZ001>004-302200-
KAUAI-NIIHAU-

CITY           SKY/WX    TMP DP  RH WIND       PRES   REMARKS
LIHUE APT      MOSUNNY   83  71  67 SE12      29.97F
PORT ALLEN*    NOT AVBL
POIPU*           N/A     84 N/A N/A S2          N/A
PRINCEVILLE*     N/A     81 N/A N/A MISG        N/A
KOKOLE POINT*  NOT AVBL
MOLOAA DAIRY*  NOT AVBL
WAIMEA HTS*    NOT AVBL
PUU OPAE*      NOT AVBL
PUU LUA*       NOT AVBL
MAKAHA RIDGE*  NOT AVBL
$$

HIZ005>011-302200-
OAHU-

CITY           SKY/WX    TMP DP  RH WIND       PRES   REMARKS
HONOLULU       MOSUNNY   85  67  54 S9        29.95F
KALAELOA       SUNNY     84  71  65 S8        29.96F
KANEOHE MCB    PTSUNNY   82  72  69 SE9       29.94S
WHEELER FIELD  FAIR      83  65  55 CALM      29.95F
BELLOWS*       NOT AVBL
KAHUKU*        NOT AVBL
WHEELER*       NOT AVBL
WAIANAE HARBOR NOT AVBL
DILLINGHAM*      N/A     91  70  49 MISG        N/A  HX  97
KAHUKU TRN*      N/A     70  55  60 E8G16       N/A
KAWAILOA*        N/A     82  66  57 W5G12       N/A
KII*             N/A     81  73  78 E12         N/A
MAKUA RANGE*     N/A     82  70  65 W5          N/A
OAHU FOREST NW NOT AVBL
SCHOFIELD BRK*   N/A     64  50  59 MISG        N/A
SCHOFIELD S*   NOT AVBL
WAIANAE VLY*   NOT AVBL
KUAOKALA*      NOT AVBL
HONOULIUULI*   NOT AVBL
MOKUOLOE IS*   NOT AVBL
PALEHUA*       NOT AVBL
WAIAWA PHB*    NOT AVBL
$$

HIZ012>013-302200-
MOLOKAI-

CITY           SKY/WX    TMP DP  RH WIND       PRES   REMARKS
MOLOKAI AIRPT  SUNNY     85  68  56 S9        29.97F
KALAUPAPA      NOT AVBL
MAKAPULAPAI*   NOT AVBL
MOLOKAI 1*     NOT AVBL
PUU ALII*      NOT AVBL
$$

HIZ016-302200-
KAHOOLAWE-

CITY           SKY/WX    TMP DP  RH WIND       PRES   REMARKS
KAHOOLAWE*     NOT AVBL
HAKIOAWA*      NOT AVBL
HONOKANAIA*      N/A     84  71  65 E17G26    29.96F
KANELOA*         N/A     79  72  78 E15G26    30.04S
KEALIALALO*    NOT AVBL
LUA MAKIKA*    NOT AVBL
$$

HIZ014>015-302200-
LANAI-

CITY           SKY/WX    TMP DP  RH WIND       PRES   REMARKS
LANAI CITY     PTSUNNY   79  69  71 VRB3      30.02F
LANAI 1*       NOT AVBL
$$

HIZ017>028-302200-
MAUI-

CITY           SKY/WX    TMP DP  RH WIND       PRES   REMARKS
KAHULUI        MOSUNNY   88  72  58 NE13      29.95F HX  94
KAPALUA-W MAUI MOSUNNY   84  72  65 SW6       29.97
HANA AIRPORT   PTSUNNY   82  73  74 E8        29.99S
HANA*          NOT AVBL
HALEAKALA SUMM   N/A     59  27  29 S3G15       N/A
MAALAEA BAY*   NOT AVBL
HALEAKALA*     NOT AVBL
KAUPO GAP*     NOT AVBL
KULA 1*          N/A     68  60  76 NW5         N/A
$$

HIZ023>026-302200-
BIG ISLAND OF HAWAII COAST AND LOWER SLOPES-

CITY           SKY/WX    TMP DP  RH WIND       PRES   REMARKS
KAILUA KONA    MOSUNNY   83  73  72 W7        29.93S
HILO           LGT RAIN  78  73  84 VRB3      29.98S
HONOKAA*       NOT AVBL
KAWAIHAE MWT*  NOT AVBL
KAWAIHAE*        N/A     81 N/A N/A W6          N/A
SOUTH POINT*   NOT AVBL
UPOLU AIRPORT* NOT AVBL
KAMUELA*       CLEAR     82  64  54 NE15      30.07S
HAKALAU*         N/A     69  58  67 SE5G12      N/A
KALOKO-HONOKO* NOT AVBL
PALI 2*          N/A     82  64  54 NE9G18      N/A
KEALAKOMO*       N/A     75  59  57 NE17G26     N/A
KAUPULEHU*     NOT AVBL
KAPAPALA*        N/A     77  70  79 E6G12       N/A
LOWER KAHUKU*  NOT AVBL
PUHE CS*       NOT AVBL
PUHO CS*       NOT AVBL
PTA KEAMUKU*     N/A    N/A N/A N/A CALM        N/A
WAIKOLOA*      NOT AVBL
$$

HIZ027>028-302200-
BIG ISLAND OF HAWAII INTERIOR AND SUMMMITS-

CITY           SKY/WX    TMP DP  RH WIND       PRES   REMARKS
BRADSHAW FIELD SUNNY     75  52  44 W6G14     30.30F
MK VISITOR CEN   N/A      0   0 100 MISG        N/A
MAUNA KEA*       N/A     45  21  39 NW12        N/A
MAUNA LOA*       N/A     54  39  58 MISG        N/A
MAUNA LOA 1*   NOT AVBL
PTA KIPUKA*      N/A     73  54  49 NW8G14      N/A
PTA RANGE 17*    N/A    N/A N/A N/A NW12G20     N/A
PTA WEST*        N/A     75  57  53 NW10G18     N/A
NENE CABIN*    NOT AVBL
AHUMOA*        NOT AVBL
PTA PORTABLE*  NOT AVBL
PUU MALI*        N/A     63  57  82 NE9G15      N/A
$$

HIC003-302200-
NORTHWEST ISLANDS-

CITY           SKY/WX    TMP DP  RH WIND       PRES   REMARKS
MIDWAY ISLAND  PTSUNNY   82  73  74 NW8       30.08S
MIDWAY NOS*    NOT AVBL
FRENCH FRIGATE NOT AVBL
$$

PHZ110>124-180-302200-
BUOY REPORTS

STATION/POSITION TIME  TEMP    WIND        PRES    WAVE   SWELL
                       AIR SEA DIR/SP/G            HT/PER HT/DIR
                 (UTC) (F)     (DEG/KT/KT) (MB)    (FT/S) (FT/D)
BUOY 51001       NOT AVBL
BUOY 51101       2100   77 80  230/  8/ 10 1014.0F   4/14   5/170
BUOY 51100       NOT AVBL
BUOY 51002       2100   80 80   60/ 16/ 17 1012.9F   6/ 8   5/ 90
BUOY 51003       2000   80 81   70/  6/  8 1014.7R   5/ 9   5
BUOY 51004       2003   80 80   70/ 17/ 21 1012.9    7/ 8   5/ 80
BARBERS PT BUOY  NOT AVBL
WAIMEA BAY BUOY  2100      80                N/A     3/ 9   2/340
KAILUA BAY BUOY  2100      80                N/A     3/ 9   2/ 90
LANAI BUOY       NOT AVBL
BARBERS PT 2     2100      81                N/A     3/12   2/180
PAUWELA MAUI     2100      79                N/A     4/ 8   2/360
HILO             2100      80                N/A     6/ 9   2/120
KANEOHE BAY BUOY 2100      79                N/A     3/ 8
HANALEI KAUAI    2100      82                N/A     4/ 9   2/ 10
KAHULUI HARBOR   2100   79 80   30/ 12/ 14 1014.2S
HONOLULU HARBOR  2100   81 81  210/  6/ 10 1014.4F
KILO NALU        NOT AVBL
HILO HARBOR      2100   83 78  110/ 10/ 13 1014.7S
MOKUOLOE         2100   85 82  100/  6/  9 1014.7F
NAWILIWILI       2100   79 80  150/  9/ 14 1014.3F
WHOTS BUOY       NOT AVBL
BUOY 51028       NOT AVBL
$$

......................KEY........................................
  SKY/WX - SKY CONDITIONS/PRESENT WEATHER
  TMP    - TEMPERATURE IN FAHRENHEIT
  DWPT   - DEWPOINT IN FAHRENHEIT
  RH     - RELATIVE HUMIDITY IN PERCENT
  WIND   - DIRECTION AND SPEED /MPH FOR ISLANDS...KTS FOR BUOYS/
  PRES   - MEAN SEA LEVEL PRESSURE IN INCHES OF HG
  VSB    - VISIBILITY IN MILES
  HX     - HEAT INDEX
  WCI    - WIND CHILL INDEX
  VRB    - VARIABLE WIND DIRECTION
  N/A    - NOT AVAILABLE


USA.gov is the U.S. government's official web portal to all federal, state and local government web resources and services.